Location: Asheville, NC
(35.6000°N, 82.5500°W)
Time: 07:04:05
(UTC-05:00)

Vanguard 1 - Pass Details

Date: 11 February 2018
Orbit: 650 x 3833 km, 34.2° (Epoch: 19 February)

Event Time Altitude Azimuth Distance (km) Brightness Sun altitude
Rises 17:54:22 0° 244° (WSW) 4,552 16.1 1.9°
Reaches altitude 10° 17:58:06 10° 240° (WSW) 3,131 14.6 1.1°
Maximum altitude 18:04:50 52° 166° (SSE) 1,019 10.3 -0.2°
Drops below altitude 10° 18:09:24 10° 89° (E) 2,131 11.2 -1.1°
Enters shadow 18:11:13 - 84° (E) 2,859 11.8 -1.4°
Sets 18:11:30 0° 84° (E) 2,973 - -1.5°
